TimeCST,TemperatureF,Dew PointF,Humidity,Sea Level PressureIn,VisibilityMPH,Wind Direction,Wind SpeedMPH,Gust SpeedMPH,PrecipitationIn,Events,Conditions,WindDirDegrees,DateUTC
12:11 AM,39.2,39.2,100,29.87,0.8,NNE,6.9,-,0.00,,Mist,30,2012-12-08 06:11:00
12:43 AM,41.0,39.2,93,29.85,0.2,NE,4.6,-,0.00,Fog,Fog,40,2012-12-08 06:43:00
12:54 AM,39.9,39.9,100,29.87,0.5,NNE,5.8,-,0.00,Fog,Fog,30,2012-12-08 06:54:00
1:51 AM,39.2,39.2,100,29.90,0.2,WNW,10.4,-,N/A,Fog,Fog,300,2012-12-08 07:51:00
1:54 AM,39.9,39.0,97,29.91,0.5,NW,9.2,-,N/A,Fog,Fog,310,2012-12-08 07:54:00
2:35 AM,39.2,37.4,93,29.90,1.5,NNW,9.2,-,0.01,,Overcast,340,2012-12-08 08:35:00
2:54 AM,39.9,39.0,97,29.92,1.8,NNW,9.2,-,0.01,,Overcast,330,2012-12-08 08:54:00
3:14 AM,39.2,37.4,93,29.91,0.8,NNW,8.1,-,N/A,,Mist,330,2012-12-08 09:14:00
3:54 AM,37.9,37.0,97,29.93,0.8,NNW,9.2,-,N/A,,Mist,330,2012-12-08 09:54:00
4:43 AM,37.4,37.4,100,29.93,1.2,NNW,9.2,-,N/A,,Overcast,330,2012-12-08 10:43:00
4:54 AM,37.9,37.0,97,29.95,1.5,NNW,9.2,-,N/A,,Overcast,330,2012-12-08 10:54:00
5:54 AM,37.4,35.6,93,29.95,1.0,NNW,9.2,-,N/A,,Overcast,330,2012-12-08 11:54:00
6:02 AM,37.4,35.6,93,29.95,0.8,North,8.1,-,N/A,,Overcast,350,2012-12-08 12:02:00
6:12 AM,37.4,35.6,93,29.96,1.0,North,6.9,-,N/A,,Overcast,350,2012-12-08 12:12:00
6:39 AM,37.4,35.6,93,29.96,2.0,North,3.5,-,N/A,,Overcast,360,2012-12-08 12:39:00
6:54 AM,37.0,36.0,96,29.98,2.5,NNW,6.9,-,N/A,,Overcast,330,2012-12-08 12:54:00
7:08 AM,37.4,35.6,93,29.97,3.0,NNW,8.1,-,N/A,,Overcast,340,2012-12-08 13:08:00
7:19 AM,37.4,35.6,93,29.97,2.5,North,8.1,-,N/A,,Overcast,350,2012-12-08 13:19:00
7:36 AM,37.4,35.6,93,29.98,1.2,North,9.2,-,N/A,,Overcast,350,2012-12-08 13:36:00
7:54 AM,37.0,35.1,93,29.99,1.2,North,11.5,-,N/A,,Overcast,360,2012-12-08 13:54:00
8:54 AM,37.0,36.0,96,30.01,1.5,North,6.9,-,N/A,,Overcast,360,2012-12-08 14:54:00
9:07 AM,37.4,35.6,93,30.00,2.0,North,5.8,-,N/A,,Overcast,350,2012-12-08 15:07:00
9:54 AM,37.9,35.1,89,30.03,3.0,North,8.1,-,N/A,,Overcast,10,2012-12-08 15:54:00
10:04 AM,37.4,35.6,93,30.02,3.0,North,5.8,-,N/A,,Overcast,10,2012-12-08 16:04:00
10:54 AM,37.9,36.0,93,30.04,4.0,North,8.1,-,N/A,,Overcast,360,2012-12-08 16:54:00
11:19 AM,39.2,35.6,87,30.01,7.0,NNE,5.8,-,N/A,,Overcast,20,2012-12-08 17:19:00
11:54 AM,39.9,35.1,83,30.00,9.0,NNE,8.1,-,N/A,,Overcast,20,2012-12-08 17:54:00
12:03 PM,39.2,33.8,81,29.99,10.0,NNE,6.9,-,N/A,,Overcast,20,2012-12-08 18:03:00
12:14 PM,39.2,33.8,81,29.99,10.0,NNE,8.1,-,N/A,,Overcast,20,2012-12-08 18:14:00
12:54 PM,39.9,34.0,79,30.00,10.0,NE,9.2,-,N/A,,Overcast,50,2012-12-08 18:54:00
1:54 PM,41.0,33.1,73,29.99,10.0,ENE,8.1,-,N/A,,Overcast,70,2012-12-08 19:54:00
2:54 PM,39.9,34.0,79,30.00,10.0,ESE,6.9,-,N/A,,Overcast,120,2012-12-08 20:54:00
3:54 PM,39.0,34.0,82,30.00,10.0,East,8.1,-,N/A,,Overcast,90,2012-12-08 21:54:00
4:54 PM,39.0,34.0,82,30.02,10.0,Calm,Calm,-,N/A,,Overcast,0,2012-12-08 22:54:00
5:54 PM,39.0,35.1,86,30.02,10.0,East,3.5,-,N/A,,Overcast,100,2012-12-08 23:54:00
6:54 PM,39.0,35.1,86,30.01,10.0,East,5.8,-,N/A,,Overcast,90,2012-12-09 00:54:00
7:03 PM,39.2,35.6,87,29.99,10.0,East,6.9,-,N/A,,Overcast,90,2012-12-09 01:03:00
7:54 PM,39.0,35.1,86,29.99,9.0,East,8.1,-,N/A,,Overcast,100,2012-12-09 01:54:00
8:54 PM,39.2,35.6,87,29.97,9.0,East,8.1,-,N/A,,Overcast,90,2012-12-09 02:54:00
9:23 PM,39.2,35.6,87,29.98,9.0,ESE,10.4,-,N/A,,Overcast,110,2012-12-09 03:23:00
9:54 PM,39.9,36.0,86,30.00,9.0,East,8.1,-,0.00,Rain,Light Rain,100,2012-12-09 03:54:00
10:03 PM,39.2,35.6,87,29.98,10.0,ESE,8.1,-,0.00,,Overcast,110,2012-12-09 04:03:00
10:12 PM,39.2,35.6,87,29.98,8.0,ESE,9.2,-,0.00,Rain,Light Rain,110,2012-12-09 04:12:00
10:54 PM,39.0,36.0,89,29.99,6.0,ESE,12.7,-,0.01,Rain,Light Rain,110,2012-12-09 04:54:00
11:54 PM,39.0,36.0,89,29.96,8.0,ESE,13.8,-,0.00,,Overcast,110,2012-12-09 05:54:00